(205815) = 2002 CU209 = 1999 JK16

Discovered at Socorro on 2002-02-10 by LINEAR.

Orbit

Orbit type: Main Belt

Note: WebGL enabled browser required.

epoch2023-02-25.0
epoch JD2460000.5
perihelion date2023-02-14.62968
perihelion JD2459990.12968
argument of perihelion (°)45.78036
ascending node (°)56.57972
inclination (°)1.45020
eccentricity0.0870273
perihelion distance (AU)2.1322022
Tisserand w.r.t. Jupiter3.6
ΔV w.r.t. Earth (km/sec)9.1
semimajor axis (AU)2.3354501
mean anomaly (°)2.86378
mean daily motion (°/day)0.27615190
aphelion distance (AU)2.539
period (years)3.57
P-vector [x]-0.21386311
P-vector [y]0.88888565
P-vector [z]0.40514796
Q-vector [x]-0.97663523
Q-vector [y]-0.20352505
Q-vector [z]-0.06900133
absolute magnitude17.33
phase slope0.15
uncertainty0
referenceMPO 729663
observations used371
oppositions14
arc length (days)8655
first opposition used1999
last opposition used2023
residual rms (arc-secs)0.73
perturbers coarse indicatorM-v
perturbers precise indicator003Ek
first observation date used1999-05-15.0
last observation date used2023-01-24.0
computer nameMPCLINUX
JD of orbit computation2456937.192506
perihelion JD uncertainty (days)1.0709E-04
argument of perihelion uncertainty (°)1.7202E-04
ascending node uncertainty (°)1.6980E-04
inclination uncertainty (°)3.1677E-06
eccentricity uncertainty 3.2226E-08
perihelion distance uncertainty (AU)7.5559E-08
Minimum Orbit Intersection Distances (in AU)
for orbit epoch: 2460000.5, reference: E2023-BC6
Mercury1.81743
Venus1.41316
Earth1.14872
Mars0.50298
Jupiter2.55102
Saturn6.92245
Uranus16.1815
Neptune27.5223

Observations

381 total observations over interval: 1999 05 15.23710 – 2023 01 24.583150
These data are available for download (format description).

Date (UT) J2000 RA J2000 Dec Magn Location Ref
1999 05 15.23710 15 30 59.55 -18 57 05.3 20.8 V 691 – Steward Observatory, Kitt Peak-Spacewatch MPS 4982
1999 05 15.25893 15 30 58.14 -18 57 02.0 20.4 V 691 – Steward Observatory, Kitt Peak-Spacewatch MPS 4982
1999 05 15.28090 15 30 56.71 -18 56 56.7 20.5 V 691 – Steward Observatory, Kitt Peak-Spacewatch MPS 4982
1999 05 19.33970 15 26 42.83 -18 44 32.0 20.4 V 691 – Steward Observatory, Kitt Peak-Spacewatch MPS 4982
1999 05 19.36748 15 26 41.03 -18 44 26.6 20.5 V 691 – Steward Observatory, Kitt Peak-Spacewatch MPS 4982
2002 02 10.31781 10 43 33.75 +10 52 15.7 19.5   704 – Lincoln Laboratory ETS, New Mexico MPS 50394
2002 02 10.33197 10 43 33.06 +10 52 20.2 19.8   704 – Lincoln Laboratory ETS, New Mexico MPS 50394
2002 02 10.34615 10 43 32.29 +10 52 25.0 20.2   704 – Lincoln Laboratory ETS, New Mexico MPS 50394
2002 02 10.36031 10 43 31.49 +10 52 29.7 19.6   704 – Lincoln Laboratory ETS, New Mexico MPS 50394
2002 02 10.37448 10 43 30.77 +10 52 33.9 19.9   704 – Lincoln Laboratory ETS, New Mexico MPS 50394
2002 02 12.37847 10 41 46.26 +11 03 40.2 19.2   704 – Lincoln Laboratory ETS, New Mexico MPS 50394
2002 02 12.39489 10 41 45.32 +11 03 45.9 19.6   704 – Lincoln Laboratory ETS, New Mexico MPS 50394
2002 02 12.42335 10 41 43.77 +11 03 54.8 19.8   704 – Lincoln Laboratory ETS, New Mexico MPS 50394
2002 02 12.43764 10 41 42.89 +11 03 59.7 19.5   704 – Lincoln Laboratory ETS, New Mexico MPS 50394
2002 02 16.34929 10 38 07.71 +11 26 15.2 19.5   644 – Palomar Mountain/NEAT MPS 55565
2002 02 16.42874 10 38 03.02 +11 26 42.5 19.6   644 – Palomar Mountain/NEAT MPS 55565
2002 02 16.49091 10 37 59.36 +11 27 03.7 20.1   644 – Palomar Mountain/NEAT MPS 55565
2002 02 20.24294 10 34 22.93 +11 48 35.7 19.7   704 – Lincoln Laboratory ETS, New Mexico MPS 52741
2002 02 20.25668 10 34 22.05 +11 48 41.1 20.0   704 – Lincoln Laboratory ETS, New Mexico MPS 52741
2002 02 20.27044 10 34 21.20 +11 48 47.4 20.3   704 – Lincoln Laboratory ETS, New Mexico MPS 52741
2002 02 20.28436 10 34 20.36 +11 48 51.0 19.5   704 – Lincoln Laboratory ETS, New Mexico MPS 52741
2002 02 20.29811 10 34 19.51 +11 48 55.8 19.5   704 – Lincoln Laboratory ETS, New Mexico MPS 52741
2002 02 24.28094 10 30 24.17 +12 11 27.1 20.3   644 – Palomar Mountain/NEAT MPS 55565
2002 02 24.30210 10 30 22.84 +12 11 34.2 20.2   644 – Palomar Mountain/NEAT MPS 55565
2002 02 24.32440 10 30 21.52 +12 11 41.7 20.0   644 – Palomar Mountain/NEAT MPS 55565
2002 03 09.26272 10 18 07.12 +13 16 05.4 20.5   644 – Palomar Mountain/NEAT MPS 55565
2002 03 09.33663 10 18 03.16 +13 16 23.4 21.1   644 – Palomar Mountain/NEAT MPS 55565
2002 03 09.41152 10 17 59.08 +13 16 41.6 20.8   644 – Palomar Mountain/NEAT MPS 55565
2002 03 12.19154 10 15 40.20 +13 27 44.9 20.3 V 691 – Steward Observatory, Kitt Peak-Spacewatch MPS 55565
2002 03 12.21317 10 15 39.12 +13 27 49.7 20.2 V 691 – Steward Observatory, Kitt Peak-Spacewatch MPS 55565
2002 03 12.23464 10 15 38.02 +13 27 54.7 20.6 V 691 – Steward Observatory, Kitt Peak-Spacewatch MPS 55565
2002 03 12.36652 10 15 31.34 +13 28 23.9 20.5   644 – Palomar Mountain/NEAT MPS 55565
2002 03 12.39333 10 15 29.99 +13 28 29.6 20.1   644 – Palomar Mountain/NEAT MPS 55565
2002 03 12.42920 10 15 28.22 +13 28 37.4 20.4   644 – Palomar Mountain/NEAT MPS 55565
2002 03 14.18013 10 14 06.71 +13 34 53.3 19.4   704 – Lincoln Laboratory ETS, New Mexico MPS 55565
2002 03 14.19307 10 14 06.08 +13 34 54.7 20.2   704 – Lincoln Laboratory ETS, New Mexico MPS 55565
2002 03 14.20602 10 14 05.45 +13 34 58.8 19.5   704 – Lincoln Laboratory ETS, New Mexico MPS 55565
2002 03 14.21904 10 14 04.79 +13 35 01.0 19.6   704 – Lincoln Laboratory ETS, New Mexico MPS 55565
2002 03 14.23205 10 14 04.18 +13 35 03.6 20.0   704 – Lincoln Laboratory ETS, New Mexico MPS 55565
2002 03 16.17967 10 12 38.15 +13 41 25.0 19.7   704 – Lincoln Laboratory ETS, New Mexico MPS 55565
2002 03 16.19236 10 12 37.67 +13 41 28.0 20.1   704 – Lincoln Laboratory ETS, New Mexico MPS 55565
2002 03 16.20509 10 12 37.04 +13 41 29.5 19.9   704 – Lincoln Laboratory ETS, New Mexico MPS 55565
2002 03 16.21789 10 12 36.42 +13 41 31.8 20.1   704 – Lincoln Laboratory ETS, New Mexico MPS 55565
2002 03 16.23077 10 12 35.98 +13 41 34.0 20.5   704 – Lincoln Laboratory ETS, New Mexico MPS 55566
2004 10 15.41163 04 00 51.42 +20 08 53.5 20.5 V 691 – Steward Observatory, Kitt Peak-Spacewatch MPS 120444
2004 10 15.43843 04 00 50.79 +20 08 52.9 20.4 V 691 – Steward Observatory, Kitt Peak-Spacewatch MPS 120444
2004 10 15.46512 04 00 50.21 +20 08 52.3 20.4 V 691 – Steward Observatory, Kitt Peak-Spacewatch MPS 120444
2004 11 04.22289 03 47 54.30 +19 44 24.3 19.9 V 691 – Steward Observatory, Kitt Peak-Spacewatch MPS 119263
2004 11 04.24963 03 47 52.75 +19 44 21.2 19.9 V 691 – Steward Observatory, Kitt Peak-Spacewatch MPS 119263
2004 11 04.27708 03 47 51.14 +19 44 18.0 20.0 V 691 – Steward Observatory, Kitt Peak-Spacewatch MPS 119263
2004 11 10.14179 03 42 04.98 +19 30 45.0 20.0 V 691 – Steward Observatory, Kitt Peak-Spacewatch MPS 119263
2004 11 10.16957 03 42 03.23 +19 30 41.2 19.9 V 691 – Steward Observatory, Kitt Peak-Spacewatch MPS 119263
2004 11 10.19756 03 42 01.45 +19 30 37.2 19.9 V 691 – Steward Observatory, Kitt Peak-Spacewatch MPS 119263
2004 11 19.21038 03 32 23.57 +19 06 05.7 19.6 V 691 – Steward Observatory, Kitt Peak-Spacewatch MPS 120444
2004 11 19.24091 03 32 21.52 +19 06 00.6 19.6 V 691 – Steward Observatory, Kitt Peak-Spacewatch MPS 120444
2004 11 19.27217 03 32 19.39 +19 05 55.2 19.8 V 691 – Steward Observatory, Kitt Peak-Spacewatch MPS 120444
2004 11 19.28943 03 32 18.18 +19 05 53.0 19.0 R 703 – Catalina Sky Survey MPS 119831
2004 11 19.29774 03 32 17.68 +19 05 50.4 19.1 R 703 – Catalina Sky Survey MPS 119831
2004 11 19.30603 03 32 17.05 +19 05 47.3 18.5 R 703 – Catalina Sky Survey MPS 119831
2004 11 19.31431 03 32 16.58 +19 05 47.4 18.6 R 703 – Catalina Sky Survey MPS 119831
2006 04 19.35619 14 30 04.10 -13 50 17.1 20.6 V G96 – Mt. Lemmon Survey MPS 169121
2006 04 19.36479 14 30 03.56 -13 50 15.1 19.4 V G96 – Mt. Lemmon Survey MPS 169121
2006 04 19.37351 14 30 03.06 -13 50 12.1 19.8 V G96 – Mt. Lemmon Survey MPS 169121
2006 04 19.38214 14 30 02.52 -13 50 10.4 19.8 V G96 – Mt. Lemmon Survey MPS 169121
2009 01 02.50080 09 22 08.43 +17 45 46.2 20.0 V G96 – Mt. Lemmon Survey MPS 270046
2009 01 02.50935 09 22 08.18 +17 45 47.8 20.1 V G96 – Mt. Lemmon Survey MPS 270046
2009 01 02.51785 09 22 07.96 +17 45 49.5 19.9 V G96 – Mt. Lemmon Survey MPS 270046
2009 01 02.52631 09 22 07.68 +17 45 50.9 20.1 V G96 – Mt. Lemmon Survey MPS 270046
2009 01 16.24836 09 13 03.08 +18 40 25.1 19.8 V 691 – Steward Observatory, Kitt Peak-Spacewatch MPS 272287
2009 01 16.26673 09 13 02.11 +18 40 30.2 19.9 V 691 – Steward Observatory, Kitt Peak-Spacewatch MPS 272287
2009 01 16.28486 09 13 01.14 +18 40 35.3 19.8 V 691 – Steward Observatory, Kitt Peak-Spacewatch MPS 272287
2009 01 17.34590 09 12 05.67 +18 45 30.1 19.6   704 – Lincoln Laboratory ETS, New Mexico MPS 272287
2009 01 17.35844 09 12 04.95 +18 45 33.1 20.0   704 – Lincoln Laboratory ETS, New Mexico MPS 272287
2009 01 17.37096 09 12 04.25 +18 45 36.9 20.2   704 – Lincoln Laboratory ETS, New Mexico MPS 272287
2009 01 17.38349 09 12 03.50 +18 45 40.2 19.7   704 – Lincoln Laboratory ETS, New Mexico MPS 272287
2009 01 20.28881 09 09 24.36 +18 59 23.4 20.9 V 691 – Steward Observatory, Kitt Peak-Spacewatch MPS 272287
2009 01 20.30716 09 09 23.25 +18 59 28.6 19.7 V 691 – Steward Observatory, Kitt Peak-Spacewatch MPS 272287
2009 01 20.32555 09 09 22.18 +18 59 33.8 19.6 V 691 – Steward Observatory, Kitt Peak-Spacewatch MPS 272287
2009 01 26.62508 09 03 06.48 +19 29 48.7 19.2 R D29 – Purple Mountain Observatory, XuYi Station MPS 272287
2009 01 26.64005 09 03 05.53 +19 29 54.1 19.0 R D29 – Purple Mountain Observatory, XuYi Station MPS 272287
2009 01 26.65474 09 03 04.59 +19 29 58.8 19.3 R D29 – Purple Mountain Observatory, XuYi Station MPS 272287
2009 01 26.67000 09 03 03.59 +19 30 02.8 19.1 R D29 – Purple Mountain Observatory, XuYi Station MPS 272287
2009 01 29.29036 09 00 19.56 +19 42 28.2 19.5   704 – Lincoln Laboratory ETS, New Mexico MPS 272287
